When you browse on this site, cookies collect data to enhance your experience and personalize the content and advertising you see.
Visit our Privacy Policy to learn more. By continuing to use the site, you agree to this use of cookies and data.
  • Em Portugal
  • Lista de países
  • Para 7 dias
  • Temperatura da água
  • Mapas de satélite
  • Mapa do tempo
  • Widgets de tempo
  • user-avatar
    Iniciar Sessão

    Previsão horária em Kryuchkovo

    Hoje, 20 Abril, Sábado

    Tempo Temperatura Precipitação Vento Pressão Humidade
    00:00 +9°C° 0.1 mm 1 m/s 756 mmHg 63%
    01:00 +8°C° 0.1 mm 1 m/s 755 mmHg 71%
    02:00 +8°C° 0 mm 1 m/s 755 mmHg 71%
    03:00 +7°C° 0.2 mm 1 m/s 755 mmHg 77%
    04:00 +6°C° 0.2 mm 2 m/s 754 mmHg 83%
    05:00 +6°C° 0.2 mm 2 m/s 754 mmHg 90%
    06:00 +6°C° 0.2 mm 2 m/s 754 mmHg 86%
    07:00 +7°C° 0.2 mm 2 m/s 754 mmHg 83%
    08:00 +8°C° 0 mm 2 m/s 754 mmHg 76%
    09:00 +9°C° 0 mm 3 m/s 754 mmHg 68%
    10:00 +10°C° 0 mm 3 m/s 754 mmHg 60%
    11:00 +10°C° 0 mm 3 m/s 754 mmHg 51%
    12:00 +11°C° 0 mm 3 m/s 754 mmHg 48%
    13:00 +11°C° 0 mm 3 m/s 754 mmHg 44%
    14:00 +12°C° 0 mm 3 m/s 754 mmHg 41%
    15:00 +11°C° 0 mm 3 m/s 754 mmHg 42%
    16:00 +11°C° 0 mm 3 m/s 753 mmHg 43%
    17:00 +10°C° 0 mm 3 m/s 753 mmHg 44%
    18:00 +9°C° 0 mm 2 m/s 753 mmHg 51%
    19:00 +7°C° 0 mm 2 m/s 754 mmHg 57%
    20:00 +5°C° 0 mm 2 m/s 754 mmHg 64%
    21:00 +5°C° 0 mm 2 m/s 754 mmHg 68%
    22:00 +4°C° 0 mm 2 m/s 754 mmHg 72%
    23:00 +4°C° 0 mm 2 m/s 754 mmHg 76%

    Amanhã, 21 Abril, Domingo

    Tempo Temperatura Precipitação Vento Pressão Humidade
    00:00 +3°C° 0 mm 2 m/s 754 mmHg 80%
    01:00 +3°C° 0 mm 2 m/s 754 mmHg 84%
    02:00 +3°C° 0 mm 2 m/s 755 mmHg 88%
    03:00 +2°C° 0 mm 2 m/s 755 mmHg 90%
    04:00 +2°C° 0 mm 2 m/s 755 mmHg 92%
    05:00 +2°C° 0 mm 2 m/s 755 mmHg 94%
    06:00 +4°C° 0 mm 2 m/s 755 mmHg 86%
    07:00 +6°C° 0 mm 2 m/s 755 mmHg 78%
    08:00 +8°C° 0 mm 2 m/s 755 mmHg 71%
    09:00 +9°C° 0 mm 2 m/s 755 mmHg 64%
    10:00 +12°C° 0 mm 2 m/s 755 mmHg 57%
    11:00 +14°C° 0 mm 2 m/s 756 mmHg 51%
    12:00 +14°C° 0 mm 2 m/s 755 mmHg 49%
    13:00 +15°C° 0 mm 2 m/s 755 mmHg 47%
    14:00 +16°C° 0 mm 2 m/s 755 mmHg 45%
    15:00 +16°C° 0 mm 2 m/s 755 mmHg 46%
    16:00 +16°C° 0 mm 2 m/s 755 mmHg 48%
    17:00 +15°C° 0 mm 2 m/s 755 mmHg 49%
    18:00 +14°C° 0 mm 2 m/s 755 mmHg 56%
    19:00 +12°C° 0 mm 1 m/s 755 mmHg 63%
    20:00 +10°C° 0 mm 1 m/s 756 mmHg 71%
    21:00 +10°C° 0 mm 1 m/s 756 mmHg 73%
    22:00 +9°C° 0 mm 1 m/s 756 mmHg 75%
    23:00 +8°C° 0 mm 1 m/s 756 mmHg 77%

    Depois de amanhã, 22 Abril, Segunda-feira

    Tempo Temperatura Precipitação Vento Pressão Humidade
    00:00 +8°C° 0 mm 1 m/s 756 mmHg 78%
    01:00 +8°C° 0 mm 1 m/s 757 mmHg 80%
    02:00 +7°C° 0 mm 1 m/s 757 mmHg 81%
    03:00 +7°C° 0 mm 1 m/s 757 mmHg 83%
    04:00 +7°C° 0 mm 1 m/s 757 mmHg 84%
    05:00 +7°C° 0 mm 1 m/s 757 mmHg 86%
    06:00 +9°C° 0 mm 1 m/s 757 mmHg 78%
    07:00 +11°C° 0 mm 1 m/s 758 mmHg 70%
    08:00 +13°C° 0 mm 1 m/s 758 mmHg 62%
    09:00 +15°C° 0 mm 1 m/s 758 mmHg 56%
    10:00 +16°C° 0 mm 1 m/s 758 mmHg 50%
    11:00 +19°C° 0 mm 1 m/s 758 mmHg 44%
    12:00 +19°C° 0 mm 1 m/s 758 mmHg 42%
    13:00 +19°C° 0 mm 1 m/s 758 mmHg 40%
    14:00 +19°C° 0 mm 1 m/s 757 mmHg 39%
    15:00 +19°C° 0 mm 1 m/s 757 mmHg 41%
    16:00 +18°C° 0 mm 1 m/s 757 mmHg 44%
    17:00 +18°C° 0 mm 1 m/s 757 mmHg 46%
    18:00 +15°C° 0 mm 1 m/s 757 mmHg 49%
    19:00 +14°C° 0 mm 1 m/s 757 mmHg 53%
    20:00 +13°C° 0 mm 1 m/s 758 mmHg 56%
    21:00 +13°C° 0 mm 1 m/s 758 mmHg 58%
    22:00 +12°C° 0 mm 1 m/s 758 mmHg 59%
    23:00 +11°C° 0 mm 1 m/s 758 mmHg 61%

    23 Abril, Terça-feira

    Tempo Temperatura Precipitação Vento Pressão Humidade
    00:00 +11°C° 0 mm 1 m/s 758 mmHg 63%
    01:00 +10°C° 0 mm 1 m/s 759 mmHg 65%
    02:00 +9°C° 0 mm 1 m/s 759 mmHg 67%
    03:00 +9°C° 0 mm 1 m/s 759 mmHg 68%
    04:00 +9°C° 0 mm 1 m/s 759 mmHg 69%
    05:00 +8°C° 0 mm 1 m/s 759 mmHg 69%
    06:00 +10°C° 0 mm 1 m/s 760 mmHg 63%
    07:00 +12°C° 0 mm 1 m/s 760 mmHg 58%
    08:00 +14°C° 0 mm 1 m/s 760 mmHg 52%
    09:00 +15°C° 0 mm 1 m/s 760 mmHg 47%
    10:00 +17°C° 0 mm 2 m/s 760 mmHg 41%
    11:00 +18°C° 0 mm 2 m/s 760 mmHg 36%
    12:00 +18°C° 0 mm 2 m/s 760 mmHg 35%
    13:00 +19°C° 0 mm 2 m/s 759 mmHg 34%
    14:00 +19°C° 0 mm 2 m/s 759 mmHg 33%
    15:00 +19°C° 0 mm 2 m/s 759 mmHg 35%
    16:00 +18°C° 0 mm 2 m/s 759 mmHg 36%
    17:00 +18°C° 0 mm 2 m/s 758 mmHg 37%
    18:00 +16°C° 0 mm 2 m/s 758 mmHg 43%
    19:00 +14°C° 0 mm 1 m/s 758 mmHg 49%
    20:00 +12°C° 0 mm 1 m/s 758 mmHg 56%
    21:00 +12°C° 0 mm 1 m/s 759 mmHg 57%
    22:00 +11°C° 0 mm 1 m/s 759 mmHg 59%
    23:00 +10°C° 0 mm 1 m/s 759 mmHg 60%

    24 Abril, Quarta-feira

    Tempo Temperatura Precipitação Vento Pressão Humidade
    00:00 +10°C° 0 mm 1 m/s 759 mmHg 62%
    01:00 +9°C° 0 mm 1 m/s 759 mmHg 64%
    02:00 +9°C° 0 mm 1 m/s 760 mmHg 67%
    03:00 +8°C° 0 mm 1 m/s 760 mmHg 67%
    04:00 +8°C° 0 mm 1 m/s 760 mmHg 68%
    05:00 +8°C° 0 mm 1 m/s 760 mmHg 69%
    06:00 +10°C° 0 mm 1 m/s 760 mmHg 62%
    07:00 +13°C° 0 mm 1 m/s 760 mmHg 55%
    08:00 +15°C° 0 mm 1 m/s 760 mmHg 47%
    09:00 +16°C° 0 mm 1 m/s 760 mmHg 43%
    10:00 +19°C° 0 mm 1 m/s 760 mmHg 39%
    11:00 +20°C° 0 mm 1 m/s 760 mmHg 35%
    12:00 +19°C° 0 mm 2 m/s 759 mmHg 34%
    13:00 +20°C° 0 mm 2 m/s 759 mmHg 33%
    14:00 +20°C° 0 mm 2 m/s 759 mmHg 32%
    15:00 +20°C° 0 mm 2 m/s 758 mmHg 34%
    16:00 +19°C° 0 mm 2 m/s 758 mmHg 35%
    17:00 +19°C° 0 mm 2 m/s 758 mmHg 37%
    18:00 +18°C° 0 mm 1 m/s 758 mmHg 44%
    19:00 +15°C° 0 mm 1 m/s 758 mmHg 51%
    20:00 +13°C° 0 mm 1 m/s 758 mmHg 58%
    21:00 +12°C° 0 mm 1 m/s 758 mmHg 60%
    22:00 +12°C° 0 mm 1 m/s 758 mmHg 62%
    23:00 +11°C° 0 mm 1 m/s 758 mmHg 65%

    25 Abril, Quinta-feira

    Tempo Temperatura Precipitação Vento Pressão Humidade
    00:00 +11°C° 0 mm 1 m/s 758 mmHg 66%
    01:00 +10°C° 0 mm 1 m/s 758 mmHg 68%
    02:00 +10°C° 0 mm 1 m/s 758 mmHg 70%
    03:00 +10°C° 0 mm 1 m/s 758 mmHg 71%
    04:00 +9°C° 0 mm 1 m/s 758 mmHg 72%
    05:00 +9°C° 0 mm 1 m/s 758 mmHg 74%
    06:00 +10°C° 0 mm 2 m/s 758 mmHg 67%
    07:00 +13°C° 0 mm 2 m/s 758 mmHg 61%
    08:00 +15°C° 0 mm 2 m/s 758 mmHg 55%
    09:00 +16°C° 0 mm 2 m/s 758 mmHg 50%
    10:00 +18°C° 0 mm 2 m/s 758 mmHg 45%
    11:00 +19°C° 0 mm 3 m/s 758 mmHg 40%
    12:00 +19°C° 0 mm 3 m/s 757 mmHg 39%
    13:00 +20°C° 0 mm 3 m/s 757 mmHg 37%
    14:00 +20°C° 0 mm 3 m/s 756 mmHg 36%
    15:00 +20°C° 0 mm 3 m/s 756 mmHg 37%
    16:00 +20°C° 0 mm 3 m/s 756 mmHg 38%
    17:00 +19°C° 0 mm 3 m/s 755 mmHg 39%
    18:00 +17°C° 0 mm 2 m/s 755 mmHg 46%
    19:00 +15°C° 0 mm 2 m/s 755 mmHg 53%
    20:00 +13°C° 0 mm 1 m/s 755 mmHg 60%
    21:00 +13°C° 0 mm 1 m/s 755 mmHg 63%
    22:00 +12°C° 0 mm 2 m/s 755 mmHg 65%
    23:00 +10°C° 0 mm 2 m/s 755 mmHg 68%
    Mostrar mais